Weather in Pogostishche

Russia / Pskov Oblast     57°33′46″N   29°52′02″E
temp.,
°C
wind,
m/s
gust,
m/s
humid.,
%
clouds,
%
prec.,
mm/h
press.,
hPa
HPBL,
m
10 may, mon
mon1000:00+4ssw367146 0.0 102295
03:00+4s31073100 0.0 1023190
06:00+5s41374100 0.0 1023324
09:00+8s5127196 0.0 1023451
12:00+14ssw710555 0.0 1023855
15:00+18ssw685338 0.0 10231300
18:00+17s476364 0.0 1023847
21:00+11sse3108690 0.0 1024167
11 may, tue
tue1100:00+10s4128694 0.0 1025234
03:00+8s389053 0.0 1026128
06:00+8s3108793 0.0 1026217
09:00+13s58649 0.0 1027419
12:00+17sse56516 0.0 1026881
15:00+19sse45485 0.0 10251046
18:00+19sse36585 0.0 1024594
21:00+13sse22735 0.0 102420
12 may, wed
wed1200:00+9sse39735 0.0 1025141
03:00+8sse3780100 0.0 1025107
06:00+9sse268516 0.0 1025117
09:00+15se35770 0.0 1025377
12:00+19se57653 0.0 10231133
15:00+21se475611 0.0 10221758
18:00+20ene25652 0.0 1019743
21:00+16nne41178100 0.0 1017297
13 may, thu
thu1300:00+15e61480100 0.2 1016747
03:00+10se7138410 0.3 1017757
06:00+8se6127993 0.0 1017893
09:00+11ese7117412 0.0 1016853
12:00+13ese61474100 0.1 10151866
15:00+14se7117519 1.0 10141434
18:00+13sse61072100 0.6 10131261
21:00+10se388399 0.6 1014329
14 may, fri
fri1400:00+8ese3109410 0.0 1013218
03:00+8ese3119484 0.0 1013284
06:00+9se51488100 0.0 1013404
09:00+14se610717 0.0 1012626
12:00+17sse685819 0.0 10121483
15:00+18s586196 0.0 10111540
18:00+19ese476538 0.0 10101044
21:00+14se37855 0.0 1009128